CW2969 Weather Reports


time (UTC)temp
C
wind
direction
speed
KPH
gust
KPH
rain 1hr
cm
rain 24hr
cm
rain mn
cm
humidity
%
barometer
mb
20260507065016 17 87 1.6 11.3 0.00 0.00 0.00 79 1014.0
20260507064516 17 165 1.6 9.7 0.00 0.00 0.00 79 1014.2
20260507064016 17 123 4.8 9.7 0.00 0.00 0.00 79 1014.3
20260507063516 17 103 4.8 14.5 0.00 0.00 0.00 79 1014.2
20260507063016 17 273 11.3 14.5 0.00 0.00 0.00 79 1014.0
20260507061515 17 99 9.7 19.3 0.00 0.00 0.00 78 1013.9
20260507061015 17 144 1.6 6.4 0.00 0.00 0.00 78 1014.0
20260507060516 17 114 3.2 9.7 0.00 0.00 0.00 78 1013.9
20260507060015 17 5 3.2 9.7 0.00 0.00 0.00 78 1013.8
20260507055515 17 330 1.6 6.4 0.00 0.00 0.00 78 1013.6
20260507055015 17 96 3.2 6.4 0.00 0.00 0.00 78 1013.7
20260507054515 17 113 4.8 4.8 0.00 0.00 0.00 78 1013.8
20260507054015 17 86 1.6 9.7 0.00 0.00 0.00 78 1013.9
20260507053515 17 261 3.2 9.7 0.00 0.00 0.00 78 1013.9
20260507053015 17 86 1.6 8.0 0.00 0.00 0.00 78 1013.7
20260507052515 17 94 6.4 8.0 0.00 0.00 0.00 78 1013.9
20260507051515 17 322 4.8 12.9 0.00 0.00 0.00 78 1013.4
20260507051014 17 346 3.2 8.0 0.00 0.00 0.00 78 1013.6
20260507050514 17 76 3.2 8.0 0.00 0.00 0.00 78 1013.5
20260507050014 17 207 3.2 8.0 0.00 0.00 0.00 78 1013.6
20260507045515 17 125 3.2 9.7 0.00 0.00 0.00 78 1013.7
20260507044514 17 123 1.6 8.0 0.00 0.00 0.00 78 1013.6
20260507044014 17 11 3.2 8.0 0.00 0.00 0.00 78 1013.4
20260507043514 17 96 4.8 9.7 0.00 0.00 0.00 78 1013.7
20260507043014 17 84 1.6 9.7 0.00 0.00 0.00 78 1013.7
20260507042514 17 333 3.2 9.7 0.00 0.00 0.00 78 1013.8
20260507042014 17 25 1.6 9.7 0.00 0.00 0.00 78 1013.7
20260507041514 17 325 1.6 8.0 0.00 0.00 0.00 78 1013.6
20260507041013 17 327 3.2 14.5 0.00 0.00 0.00 78 1013.5
20260507040513 17 344 3.2 14.5 0.00 0.00 0.00 78 1013.3
20260507035513 17 314 4.8 11.3 0.00 0.00 0.00 78 1013.4
20260507035013 18 339 4.8 11.3 0.00 0.00 0.00 78 1013.9
20260507034513 18 27 4.8 9.7 0.00 0.00 0.00 78 1013.7
20260507034013 18 355 6.4 11.3 0.00 0.00 0.00 78 1013.5
20260507033513 18 110 4.8 17.7 0.00 0.00 0.00 78 1013.5
20260507033013 18 355 8.0 17.7 0.00 0.00 0.00 78 1013.3
20260507031513 18 321 3.2 8.0 0.00 0.00 0.00 78 1013.5
20260507031013 18 308 3.2 12.9 0.00 0.00 0.00 78 1013.6
20260507030513 18 324 1.6 12.9 0.00 0.00 0.00 77 1013.5
20260507030013 18 214 6.4 12.9 0.00 0.00 0.00 77 1013.2
20260507025513 18 143 4.8 11.3 0.00 0.00 0.00 77 1012.9
20260507025013 18 115 1.6 11.3 0.00 0.00 0.00 77 1013.0
20260507024513 18 107 4.8 9.7 0.00 0.00 0.00 77 1012.8
20260507024013 18 350 9.7 9.7 0.00 0.00 0.00 77 1012.7
20260507023513 18 80 1.6 6.4 0.00 0.00 0.00 77 1013.0
20260507023013 18 355 1.6 11.3 0.00 0.00 0.00 77 1013.0
20260507022513 18 344 1.6 11.3 0.00 0.00 0.00 77 1012.9
20260507021512 18 144 1.6 9.7 0.00 0.00 0.00 77 1012.4
20260507021013 18 327 1.6 4.8 0.00 0.00 0.00 77 1012.3
20260507020513 18 280 0.0 4.8 0.00 0.00 0.00 77 1012.4
20260507020012 18 101 0.0 4.8 0.00 0.00 0.00 77 1012.4
20260507015513 18 114 1.6 4.8 0.00 0.00 0.00 77 1012.3
20260507015012 18 16 0.0 4.8 0.00 0.00 0.00 77 1012.2
20260507014512 18 360 1.6 9.7 0.00 0.00 0.00 77 1012.0
20260507014012 18 319 4.8 9.7 0.00 0.00 0.00 77 1011.9
20260507013512 18 44 1.6 6.4 0.00 0.00 0.00 77 1011.9
20260507013012 18 342 6.4 6.4 0.00 0.00 0.00 77 1011.8
20260507012512 18 344 4.8 9.7 0.00 0.00 0.00 77 1011.6
20260507012012 18 342 4.8 9.7 0.00 0.00 0.00 77 1011.8
20260507011012 18 327 1.6 9.7 0.00 0.00 0.00 76 1011.7
20260507010512 18 355 9.7 12.9 0.00 0.00 0.00 76 1011.6
20260507010012 18 329 8.0 12.9 0.00 0.00 0.00 76 1011.4
20260507005512 18 330 6.4 9.7 0.00 0.00 0.00 76 1011.4
20260507005012 18 32 0.0 8.0 0.00 0.00 0.00 76 1011.3
20260507004512 18 13 1.6 14.5 0.00 0.00 0.00 76 1011.3
20260507004012 18 315 4.8 14.5 0.00 0.00 0.00 76 1011.0
20260507003512 18 331 4.8 8.0 0.00 0.00 0.00 76 1011.2
20260507003012 18 127 1.6 9.7 0.00 0.00 0.00 76 1011.0
20260507002512 18 285 4.8 12.9 0.00 0.00 0.00 76 1011.0
20260507002012 18 60 6.4 12.9 0.00 0.00 0.00 76 1011.3
20260507001511 18 338 1.6 9.7 0.00 0.00 0.00 76 1011.0
20260507001011 18 205 4.8 9.7 0.00 0.00 0.00 76 1010.9
20260507000512 18 5 3.2 9.7 0.00 0.00 0.00 76 1011.0
20260507000012 18 321 6.4 9.7 0.00 0.00 0.00 76 1010.9
20260506235511 18 28 3.2 14.5 0.00 0.00 0.00 76 1010.8
20260506235011 18 336 6.4 14.5 0.00 0.00 0.00 75 1010.9
20260506234511 18 119 6.4 14.5 0.00 0.00 0.00 75 1011.0
20260506234011 18 107 3.2 14.5 0.00 0.00 0.00 75 1010.9
20260506232511 19 39 3.2 19.3 0.00 0.00 0.00 74 1010.6
20260506232011 19 44 3.2 19.3 0.00 0.00 0.00 74 1010.6
20260506230511 19 333 9.7 14.5 0.00 0.00 0.00 73 1010.6
20260506230011 20 333 3.2 14.5 0.00 0.00 0.00 73 1010.7
20260506225511 20 30 3.2 12.9 0.00 0.00 0.00 73 1010.7
20260506225011 20 336 12.9 12.9 0.00 0.00 0.00 72 1010.5
20260506224511 20 360 8.0 19.3 0.00 0.00 0.00 72 1010.4
20260506224011 20 355 14.5 19.3 0.00 0.00 0.00 72 1010.5
20260506223511 20 336 4.8 19.3 0.00 0.00 0.00 71 1010.4
20260506222511 21 128 6.4 12.9 0.00 0.00 0.00 71 1010.2
20260506222011 21 344 6.4 12.9 0.00 0.00 0.00 71 1010.2
20260506221511 21 111 1.6 19.3 0.00 0.00 0.00 70 1010.3
20260506221010 21 253 11.3 19.3 0.00 0.00 0.00 71 1010.1
20260506215510 21 54 4.8 8.0 0.00 0.00 0.00 71 1010.1
20260506215011 22 342 6.4 12.9 0.00 0.00 0.00 70 1010.2
20260506214510 22 167 9.7 12.9 0.00 0.00 0.00 70 1010.2
20260506214010 22 121 1.6 12.9 0.00 0.00 0.00 69 1010.1
20260506213511 23 329 3.2 14.5 0.00 0.00 0.00 69 1010.0
20260506213010 23 46 0.0 20.9 0.00 0.00 0.00 69 1009.9
20260506212010 23 355 1.6 17.7 0.00 0.00 0.00 70 1009.9
20260506211511 23 333 6.4 17.7 0.00 0.00 0.00 70 1009.7
20260506211010 23 200 1.6 19.3 0.00 0.00 0.00 70 1009.8
20260506210510 23 338 3.2 19.3 0.00 0.00 0.00 71 1009.7
20260506210010 23 114 9.7 14.5 0.00 0.00 0.00 71 1009.9
20260506205510 23 360 6.4 16.1 0.00 0.00 0.00 72 1010.0
20260506205010 23 348 4.8 16.1 0.00 0.00 0.00 73 1010.1
20260506204510 23 5 14.5 14.5 0.00 0.00 0.00 73 1010.3
20260506204010 23 55 4.8 14.5 0.00 0.00 0.00 74 1010.3
20260506203510 23 350 6.4 12.9 0.00 0.00 0.00 74 1010.3
20260506202509 23 337 8.0 20.9 0.00 0.00 0.00 73 1010.3
20260506201510 25 321 8.0 22.5 0.00 0.00 0.00 72 1010.0
20260506200509 25 311 3.2 12.9 0.00 0.00 0.00 73 1009.6
20260506200009 26 340 3.2 12.9 0.00 0.00 0.00 73 1009.6
20260506195510 26 169 3.2 6.4 0.00 0.00 0.00 73 1009.7
20260506195009 26 110 6.4 6.4 0.00 0.00 0.00 73 1009.7
20260506194509 26 185 0.0 4.8 0.00 0.00 0.00 73 1009.7
20260506194009 26 103 3.2 6.4 0.00 0.00 0.00 74 1009.7
20260506193509 26 304 3.2 6.4 0.00 0.00 0.00 74 1009.7
20260506193009 26 130 1.6 6.4 0.00 0.00 0.00 74 1009.6
20260506192509 26 103 3.2 6.4 0.00 0.00 0.00 74 1009.7
20260506192009 26 331 1.6 6.4 0.00 0.00 0.00 75 1009.8
20260506191509 25 36 3.2 4.8 0.00 0.00 0.00 76 1009.7
20260506190509 25 9 11.3 14.5 0.00 0.00 0.00 76 1009.9
20260506185508 25 112 3.2 8.0 0.00 0.00 0.00 76 1009.8
20260506185008 25 201 3.2 8.0 0.00 0.00 0.00 76 1009.7
20260506184509 25 128 4.8 4.8 0.00 0.00 0.00 77 1009.8
20260506184009 24 304 3.2 4.8 0.00 0.00 0.00 77 1009.8
20260506183508 24 20 1.6 12.9 0.00 0.00 0.00 77 1009.9
20260506183009 24 338 3.2 12.9 0.00 0.00 0.00 76 1010.0
20260506182508 23 157 3.2 4.8 0.00 0.00 0.00 77 1010.0
20260506182008 23 329 1.6 4.8 0.00 0.00 0.00 77 1010.1
20260506181508 23 331 4.8 4.8 0.00 0.00 0.00 78 1009.9
20260506180008 22 36 3.2 12.9 0.00 0.00 0.00 79 1009.9
20260506175508 22 351 4.8 12.9 0.00 0.00 0.00 79 1010.0
20260506175008 22 110 1.6 6.4 0.00 0.00 0.00 79 1009.9
20260506174508 22 340 4.8 8.0 0.00 0.00 0.00 79 1010.0
20260506174008 22 355 8.0 8.0 0.00 0.00 0.00 79 1010.0
20260506173008 22 129 1.6 6.4 0.00 0.00 0.00 79 1010.1
20260506172508 21 360 3.2 6.4 0.00 0.00 0.00 80 1010.3
20260506172008 21 173 1.6 8.0 0.00 0.00 0.00 80 1010.2
20260506171508 21 281 1.6 11.3 0.00 0.00 0.00 80 1010.2
20260506171007 21 130 6.4 11.3 0.00 0.00 0.00 80 1010.3
20260506170507 21 154 0.0 6.4 0.00 0.00 0.00 81 1010.3
20260506170037 20 115 3.2 8.0 0.00 0.00 0.00 81 1010.3
20260506165537 20 161 3.2 8.0 0.00 0.00 0.00 82 1010.4
20260506165037 20 159 6.4 17.7 0.00 0.00 0.00 81 1010.4
20260506164037 20 165 3.2 14.5 0.00 0.00 0.00 81 1011.0
20260506163537 20 38 4.8 14.5 0.00 0.00 0.00 81 1011.2
20260506163037 20 296 6.4 9.7 0.00 0.00 0.00 81 1011.2
20260506162537 21 355 3.2 12.9 0.00 0.00 0.00 80 1011.3
20260506162037 21 360 3.2 12.9 0.00 0.00 0.00 79 1011.3
20260506161537 22 311 3.2 11.3 0.00 0.00 0.00 79 1011.3
20260506161037 24 351 1.6 9.7 0.00 0.00 0.00 79 1011.1
20260506160537 25 59 4.8 4.8 0.00 0.00 0.00 79 1011.0
20260506155537 26 127 0.0 1.6 0.00 0.00 0.00 81 1010.6
20260506154537 26 108 0.0 3.2 0.00 0.00 0.00 81 1010.4
20260506154037 26 91 0.0 3.2 0.00 0.00 0.00 81 1010.3
20260506152536 25 129 0.0 3.2 0.00 0.00 0.00 81 1009.7
20260506152037 25 129 1.6 3.2 0.00 0.00 0.00 81 1009.7
20260506151536 25 129 0.0 1.6 0.00 0.00 0.00 81 1009.7
20260506151037 25 129 0.0 1.6 0.00 0.00 0.00 81 1009.5
20260506150036 25 105 1.6 3.2 0.00 0.00 0.00 81 1009.4
20260506145037 25 128 0.0 3.2 0.00 0.00 0.00 81 1009.1
20260506144536 25 128 1.6 6.4 0.00 0.00 0.00 81 1009.1
20260506144036 25 132 1.6 6.4 0.00 0.00 0.00 81 1009.0
20260506143536 25 99 1.6 1.6 0.00 0.00 0.00 81 1008.9
20260506143036 25 119 0.0 3.2 0.00 0.00 0.00 81 1008.8
20260506141536 25 159 0.0 0.0 0.00 0.00 0.00 81 1008.9
20260506140536 25 159 0.0 0.0 0.00 0.00 0.00 81 1009.1
20260506140036 25 159 0.0 0.0 0.00 0.00 0.00 81 1008.9
20260506135036 25 159 0.0 0.0 0.00 0.00 0.00 81 1008.3
20260506134536 25 159 0.0 0.0 0.00 0.00 0.00 81 1008.3
20260506134037 25 210 0.0 0.0 0.00 0.00 0.00 81 1008.3
20260506133536 25 101 0.0 6.4 0.00 0.00 0.00 81 1008.2
20260506133036 25 215 1.6 6.4 0.00 0.00 0.00 81 1008.1
20260506132535 25 144 3.2 8.0 0.00 0.00 0.00 81 1008.2
20260506132036 25 178 3.2 8.0 0.00 0.00 0.00 81 1008.2
20260506131536 25 117 0.0 4.8 0.00 0.00 0.00 81 1008.2
20260506131036 25 114 4.8 4.8 0.00 0.00 0.00 81 1008.1
20260506130036 24 138 0.0 6.4 0.00 0.00 0.00 81 1008.0
20260506125535 24 107 3.2 6.4 0.00 0.00 0.00 81 1008.0
20260506125035 24 108 3.2 4.8 0.00 0.00 0.00 81 1008.0
20260506124036 24 128 3.2 6.4 0.00 0.00 0.00 82 1007.9
20260506123535 24 134 1.6 3.2 0.00 0.00 0.00 82 1007.9
20260506123035 24 122 0.0 3.2 0.00 0.00 0.00 82 1008.0
20260506122535 24 122 0.0 3.2 0.00 0.00 0.00 82 1008.0
20260506122035 24 122 0.0 1.6 0.00 0.00 0.00 81 1008.0
20260506121535 24 155 1.6 1.6 0.00 0.00 0.00 81 1008.0
20260506121035 24 162 0.0 1.6 0.00 0.00 0.00 81 1007.9
20260506120535 24 162 1.6 1.6 0.00 0.00 0.00 81 1007.9
20260506120035 24 124 0.0 4.8 0.00 0.00 0.00 81 1007.8
20260506115535 24 112 3.2 4.8 0.00 0.00 0.00 81 1007.8
20260506115035 24 129 0.0 0.0 0.00 0.00 0.00 81 1007.8
20260506114535 24 176 0.0 3.2 0.00 0.00 0.00 81 1007.8
20260506114034 24 145 0.0 3.2 0.00 0.00 0.00 82 1007.8
20260506113534 24 179 0.0 4.8 0.00 0.00 0.00 82 1007.9
20260506112534 24 133 0.0 6.4 0.00 0.00 0.00 82 1007.8
20260506112034 24 157 0.0 1.6 0.00 0.00 0.00 82 1007.9
20260506111534 24 157 0.0 3.2 0.00 0.00 0.00 82 1007.9
20260506111034 24 157 0.0 4.8 0.00 0.00 0.00 82 1007.8
20260506110534 24 128 0.0 4.8 0.00 0.00 0.00 82 1007.8
20260506110034 24 156 3.2 4.8 0.00 0.00 0.00 82 1007.8
20260506105534 24 146 4.8 4.8 0.00 0.00 0.00 82 1007.8
20260506105033 24 132 0.0 1.6 0.00 0.00 0.00 82 1007.7
20260506104533 24 132 0.0 6.4 0.00 0.00 0.00 82 1007.7
20260506104033 24 148 0.0 6.4 0.00 0.00 0.00 82 1007.7
20260506103533 24 165 0.0 4.8 0.00 0.00 0.00 82 1007.5
20260506103034 24 226 4.8 4.8 0.00 0.00 0.00 82 1007.4
20260506102533 24 140 0.0 3.2 0.00 0.00 0.00 82 1007.4
20260506102034 24 148 0.0 3.2 0.00 0.00 0.00 82 1007.3
20260506101533 24 119 1.6 3.2 0.00 0.00 0.00 82 1007.3
20260506101033 24 128 1.6 4.8 0.00 0.00 0.00 82 1007.3
20260506095533 24 251 3.2 8.0 0.00 0.00 0.00 82 1007.1
20260506094533 24 182 1.6 6.4 0.00 0.00 0.00 82 1007.0
20260506094033 24 242 1.6 6.4 0.00 0.00 0.00 82 1006.9
20260506093533 24 195 3.2 6.4 0.00 0.00 0.00 82 1006.9
20260506093033 24 96 0.0 6.4 0.00 0.00 0.00 82 1006.8
20260506091533 24 88 4.8 8.0 0.00 0.00 0.00 82 1006.6
20260506091033 24 225 3.2 6.4 0.00 0.00 0.00 82 1006.6
20260506090533 24 213 0.0 12.9 0.00 0.00 0.00 82 1006.7
20260506090033 24 206 3.2 12.9 0.00 0.00 0.00 82 1006.7
20260506085032 24 234 3.2 6.4 0.00 0.00 0.00 82 1006.7
20260506084032 24 157 3.2 11.3 0.00 0.00 0.00 82 1006.7
20260506083532 24 176 4.8 11.3 0.00 0.00 0.00 82 1006.6
20260506083032 25 204 0.0 16.1 0.00 0.00 0.00 82 1006.7
20260506082532 25 90 9.7 16.1 0.00 0.00 0.00 82 1006.7
20260506082032 25 132 3.2 8.0 0.00 0.00 0.00 82 1006.7
20260506081532 25 124 4.8 14.5 0.00 0.00 0.00 82 1006.7
20260506081032 25 127 4.8 14.5 0.00 0.00 0.00 82 1006.7
20260506073031 25 112 12.9 12.9 0.00 0.00 0.00 82 1006.8
20260506072531 25 127 1.6 8.0 0.00 0.00 0.00 82 1007.1
20260506072031 25 227 6.4 16.1 0.00 0.00 0.00 82 1007.1
20260506071531 25 272 9.7 16.1 0.00 0.00 0.00 82 1007.1
20260506071031 25 79 1.6 16.1 0.00 0.00 0.00 82 1007.2
20260506070531 25 115 16.1 16.1 0.00 0.00 0.00 82 1007.2